sat.trackr.live / text

‹ back to catalog

STARLINK-33809

NORAD 63508 · 2025-071R

PAYLOAD ACTIVE UNKNOWN

§ Identity

Operator
Country
US
Launch date
2025-04-07
Launch site
AFWTR
Launch vehicle
Mass (kg)
RCS (m²)

Purposes: comms

External: N2YO · Heavens-Above · Gunter

§ Orbital elements

Epoch: 2026-05-24T23:46:32.387232Z

Period
94.10 min
Inclination
53.1603°
Eccentricity
0.0001586
Mean motion
15.30208471 rev/d
Perigee alt
474.1 km
Apogee alt
476.3 km
Semi-major
6,853.3 km
B*
5.0506e-4
RAAN
145.3572°
Arg perigee
70.4312°
Mean anomaly
289.6860°
Rev number
6,439

§ Raw data

STARLINK-338091 63508U 25071R   26144.99065263  .00014633  00000+0  50506-3 0  99992 63508  53.1603 145.3572 0001586  70.4312 289.6860 15.30208471 64398

JSON: /api/v1/satellites/63508 · /tle

For live sub-satellite position, see the globe view (requires WebGL).

§ Visibility from observer

Set your observer location to see the next 7 days of passes ≥ 10°. The values pass through the URL so the page stays shareable.

No JS? Fill the form by hand. The geolocation button needs JavaScript.